Change the Weather History Date:

Monday, March 18, 2013

  Actual Average Record
Temperature  
Mean Temperature 28 °F -  
Max Temperature 37 °F 45 °F 61 °F (2011)
Min Temperature 19 °F 28 °F 8 °F (1967)
Degree Days  
Heating Degree Days 38    
Moisture  
Dew Point 16 °F    
Average Humidity 54    
Maximum Humidity 70    
Minimum Humidity 41    
Precipitation  
Precipitation 0.00 in - - ()
Sea Level Pressure  
Sea Level Pressure 30.35 in    
Wind  
Wind Speed 9 mph (ENE)    
Max Wind Speed 14 mph    
Max Gust Speed 21 mph    
Visibility 10 miles    
Events Snow    
Averages and records for this station are not official NWS values.
T = Trace of Precipitation, MM = Missing Value Source: NWS Daily Summary

Daily Weather History Graph

Daily Weather History Graph

Search for Another Location

Airport or City:

Trip Planner

Search our weather history database for the weather conditions in past years. The results will help you decide how hot, cold, wet, or windy it might be!

Date:

Astronomy

Mar. 18, 2013 Rise Set
Actual Time 6:48 AM EDT 6:52 PM EDT
Civil Twilight 6:21 AM EDT 7:20 PM EDT
Nautical Twilight 5:49 AM EDT 7:52 PM EDT
Astronomical Twilight 5:16 AM EDT 8:25 PM EDT
Moon 10:42 AM EDT (3/18) 12:53 AM EDT (3/18)
Length of Visible Light 12h 58m
Length of Day
12h 03m
Waxing Crescent, 40% of the Moon is Illuminated
Mar 18
Waxing Crescent
Mar 19
First Quarter
Mar 27
Full
Apr 3
Last Quarter
Apr 10
New

Hourly Weather History & Observations

Time (EDT) Temp. Windchill Dew Point Humidity Pressure Visibility Wind Dir Wind Speed Gust Speed Precip Events Conditions
12:53 AM 28.9 °F 21.1 °F 9.0 °F 43% 30.30 in 10.0 mi North 8.1 mph - N/A   Clear
1:53 AM 28.0 °F 18.1 °F 10.0 °F 47% 30.32 in 10.0 mi North 11.5 mph - N/A   Clear
2:53 AM 27.0 °F 16.7 °F 10.9 °F 51% 30.34 in 10.0 mi NNE 11.5 mph - N/A   Clear
3:53 AM 26.1 °F 16.2 °F 5.0 °F 41% 30.35 in 10.0 mi North 10.4 mph - N/A   Clear
4:53 AM 24.1 °F 13.7 °F 6.1 °F 46% 30.37 in 10.0 mi North 10.4 mph - N/A   Clear
5:53 AM 23.0 °F 14.7 °F 3.9 °F 44% 30.40 in 10.0 mi North 6.9 mph - N/A   Clear
6:53 AM 19.9 °F 13.4 °F 6.1 °F 55% 30.43 in 10.0 mi NNW 4.6 mph - N/A   Clear
7:53 AM 25.0 °F 18.1 °F 8.1 °F 49% 30.44 in 10.0 mi North 5.8 mph - N/A   Clear
8:53 AM 28.9 °F 21.1 °F 10.9 °F 47% 30.44 in 10.0 mi NNE 8.1 mph - N/A   Clear
9:53 AM 32.0 °F 24.8 °F 14.0 °F 48% 30.43 in 10.0 mi NNE 8.1 mph - N/A   Clear
10:53 AM 33.1 °F 24.4 °F 16.0 °F 50% 30.42 in 10.0 mi ENE 11.5 mph 16.1 mph N/A   Clear
11:53 AM 35.1 °F 27.4 °F 17.1 °F 48% 30.41 in 10.0 mi East 10.4 mph - N/A   Clear
12:53 PM 36.0 °F 29.0 °F 17.1 °F 46% 30.40 in 10.0 mi East 9.2 mph 17.3 mph N/A   Clear
1:53 PM 35.1 °F 29.3 °F 18.0 °F 50% 30.39 in 10.0 mi ESE 6.9 mph - N/A   Clear
2:53 PM 34.0 °F 26.0 °F 19.0 °F 54% 30.38 in 10.0 mi SSE 10.4 mph - N/A   Clear
3:53 PM 34.0 °F 27.2 °F 19.0 °F 54% 30.35 in 10.0 mi SSE 8.1 mph - N/A   Clear
4:53 PM 33.1 °F 25.5 °F 19.0 °F 56% 30.34 in 10.0 mi SE 9.2 mph - N/A   Clear
5:53 PM 33.1 °F 26.1 °F 19.9 °F 59% 30.32 in 10.0 mi SSE 8.1 mph - N/A   Clear
6:53 PM 32.0 °F 24.2 °F 19.9 °F 61% 30.31 in 10.0 mi SE 9.2 mph - N/A   Overcast
7:53 PM 33.1 °F 26.1 °F 21.9 °F 64% 30.32 in 10.0 mi SE 8.1 mph - N/A   Overcast
8:53 PM 33.1 °F 24.4 °F 21.9 °F 64% 30.28 in 10.0 mi SE 11.5 mph - N/A   Overcast
9:53 PM 33.1 °F 23.9 °F 23.0 °F 66% 30.27 in 10.0 mi ESE 12.7 mph 20.7 mph N/A   Overcast
10:53 PM 34.0 °F 26.0 °F 24.1 °F 67% 30.24 in 10.0 mi ESE 10.4 mph - N/A   Overcast
11:33 PM 33.8 °F 24.3 °F 24.8 °F 70% 30.22 in 9.0 mi ESE 13.8 mph - 0.00 in   Overcast
11:53 PM 34.0 °F 25.5 °F 25.0 °F 70% 30.21 in 10.0 mi East 11.5 mph - 0.00 in Snow Light Snow